Location: Kalispell
(48.1967°N, 114.3128°W)
Time: 05:01:20
(UTC-06:00)

Amateur Radio Satellites - All Passes

Search period start: 23 October 2014 04:31
Search period end: 24 October 2014 04:31
Location: Kalispell, 48.1967°N, 114.3128°W

Satellite Date Start Highest point End Downlink Frequencies (MHz)
Time Altitude Azimuth
AO-Echo 23 Oct 04:33:36 04:38:41 48° 292° (WNW) 04:43:46 ?
Uribyol 2 23 Oct 04:38:45 04:43:50 53° 291° (WNW) 04:48:52 436.500 FM
Uosat F 23 Oct 04:40:39 04:42:08 11° 86° (E) 04:43:36 435.120 FM
ITAMSAT 1 23 Oct 04:44:17 04:49:20 51° 292° (WNW) 04:54:22 435.822 SSB
JAS-1B 23 Oct 04:46:55 04:52:44 40° 295° (WNW) 04:59:29 435.800 - 435.900 CW/SSB
PCSat 23 Oct 04:48:04 04:52:51 33° 112° (ESE) 04:57:41 145.825 MHz
Gurwin Techsat 1B 23 Oct 04:52:25 04:57:46 75° 287° (WNW) 05:03:03 435.225 FM
TMSAT-1 23 Oct 05:04:56 05:10:16 77° 287° (WNW) 05:15:34 436.925 FM
Oscar 19 23 Oct 05:18:21 05:20:55 14° 306° (NW) 05:23:29 437.125 CW, 437.150 USB
AO-7 23 Oct 05:18:55 05:26:34 39° 97° (E) 05:34:11 29.400 - 29.500 MHz
OPAL 23 Oct 05:21:51 05:26:55 61° 68° (ENE) 05:31:56 ?
AO-27 23 Oct 05:30:06 05:34:09 23° 300° (WNW) 05:38:12 436.795 MHz FM
STRAND 1 23 Oct 05:30:07 05:30:12 10° 50° (NE) 05:30:17 ?
RS-15 23 Oct 05:42:38 05:52:47 40° 22° (NNE) 06:03:14 29.354 - 29.394 USB, Beacon 29.352 USB
Sapphire 23 Oct 06:07:48 06:13:12 71° 307° (NW) 06:18:40 437.095 MHz 1200 baud AX-25 AFSK
Uosat F 23 Oct 06:16:39 06:21:45 79° 104° (ESE) 06:26:48 435.120 FM
PCSat 23 Oct 06:30:54 06:36:08 48° 312° (NW) 06:41:24 145.825 MHz
Gurwin Techsat 1B 23 Oct 06:34:12 06:36:52 14° 307° (NW) 06:39:31 435.225 FM
JAS-2 23 Oct 06:44:50 06:52:17 51° 97° (E) 06:59:52 435.800 - 435.900 CW/SSB, 435.910 FM
TMSAT-1 23 Oct 06:46:37 06:49:21 14° 306° (NW) 06:52:05 436.925 FM
OPAL 23 Oct 07:02:20 07:06:10 21° 266° (W) 07:10:00 ?
STRAND 1 23 Oct 07:03:18 07:08:18 55° 69° (ENE) 07:13:20 ?
Hamsat 23 Oct 07:05:09 07:09:06 39° 97° (E) 07:13:03 145.90 MHz
AO-7 23 Oct 07:11:36 07:19:41 58° 298° (WNW) 07:27:46 29.400 - 29.500 MHz
Sapphire 23 Oct 07:53:43 07:57:37 20° 329° (NNW) 08:01:33 437.095 MHz 1200 baud AX-25 AFSK
RS-15 23 Oct 07:55:44 08:06:54 83° 51° (NE) 08:18:31 29.354 - 29.394 USB, Beacon 29.352 USB
Uosat F 23 Oct 07:56:39 07:59:56 18° 303° (WNW) 08:03:13 435.120 FM
SO-67 23 Oct 08:01:20 08:03:58 20° 93° (E) 08:06:35 435.3500 MHz FM
Saudisat 1A 23 Oct 08:06:47 08:09:22 16° 111° (ESE) 08:11:57 436.775 MHz
PCSat 23 Oct 08:17:44 08:20:56 16° 336° (NNW) 08:24:08 145.825 MHz
JAS-2 23 Oct 08:30:04 08:37:11 45° 296° (WNW) 08:44:30 435.800 - 435.900 CW/SSB, 435.910 FM
Hamsat 23 Oct 08:41:33 08:44:52 23° 295° (WNW) 08:48:12 145.90 MHz
STRAND 1 23 Oct 08:43:49 08:47:49 23° 268° (W) 08:51:52 ?
AO-7 23 Oct 09:05:45 09:10:50 18° 321° (NW) 09:15:56 29.400 - 29.500 MHz
SO-67 23 Oct 09:33:57 09:37:00 29° 291° (WNW) 09:40:01 435.3500 MHz FM
Sapphire 23 Oct 09:42:34 09:43:21 10° 355° (N) 09:44:07 437.095 MHz 1200 baud AX-25 AFSK
Saudisat 1A 23 Oct 09:43:58 09:48:22 77° 310° (NW) 09:52:48 436.775 MHz
MaSat-1 23 Oct 09:48:53 09:51:32 38° 54° (NE) 09:53:57 437.345 MHz
HO-68 23 Oct 09:51:07 09:57:26 32° 94° (E) 10:03:42 435.675 MHz FM
PCSat 23 Oct 10:06:20 10:06:51 10° 2° (N) 10:07:21 145.825 MHz
UKube-1 23 Oct 10:08:21 10:10:14 13° 88° (E) 10:12:07 145.840 MHz, 145.915 MHz
RS-15 23 Oct 10:08:50 10:18:11 33° 254° (WSW) 10:27:54 29.354 - 29.394 USB, Beacon 29.352 USB
JAS-2 23 Oct 10:17:36 10:20:27 13° 317° (NW) 10:23:20 435.800 - 435.900 CW/SSB, 435.910 FM
FUNcube-1 23 Oct 10:45:05 10:46:46 12° 87° (E) 10:48:27 145.950 - 145.970 MHz USB
Oscar 11 23 Oct 10:49:54 10:53:44 30° 95° (E) 10:57:32 145.825 FM, Beacon 2401.500 USB
Saudisat 1A 23 Oct 11:25:32 11:28:39 19° 331° (NNW) 11:31:48 436.775 MHz
Sapphire 23 Oct 11:26:24 11:29:20 14° 22° (NNE) 11:32:15 437.095 MHz 1200 baud AX-25 AFSK
ZACube-1 23 Oct 11:34:24 11:38:26 38° 97° (E) 11:42:21 437.345 MHz
HO-68 23 Oct 11:38:29 11:45:33 61° 294° (WNW) 11:52:34 435.675 MHz FM
UKube-1 23 Oct 11:42:36 11:46:59 78° 286° (WNW) 11:51:21 145.840 MHz, 145.915 MHz
PCSat 23 Oct 11:48:57 11:52:38 18° 29° (NNE) 11:56:19 145.825 MHz
Oscar 10/S400 23 Oct 12:14:21 12:19:07 11° 147° (SSE) 12:23:31 145.825 - 145.975 CW/USB, Beacon 145.810 USB
FUNcube-1 23 Oct 12:19:26 12:23:45 75° 286° (WNW) 12:27:56 145.950 - 145.970 MHz USB
KITSAT 1 23 Oct 12:19:32 12:25:37 24° 104° (ESE) 12:31:41 435.175 FM
Oscar 11 23 Oct 12:26:06 12:29:53 31° 294° (WNW) 12:33:40 145.825 FM, Beacon 2401.500 USB
Oscar 16 23 Oct 12:28:05 12:30:39 14° 54° (NE) 12:33:13 437.025 USB, Beacon 2401.1428
ITAMSAT 1 23 Oct 12:52:47 12:53:17 10° 49° (NE) 12:53:47 435.822 SSB
Sapphire 23 Oct 13:09:05 13:14:16 42° 46° (NE) 13:19:24 437.095 MHz 1200 baud AX-25 AFSK
ZACube-1 23 Oct 13:11:10 13:14:40 25° 296° (WNW) 13:18:06 437.345 MHz
Oscar 19 23 Oct 13:19:16 13:23:50 33° 64° (ENE) 13:28:24 437.125 CW, 437.150 USB
UKube-1 23 Oct 13:21:08 13:22:25 11° 305° (NW) 13:23:42 145.840 MHz, 145.915 MHz
SO-50 23 Oct 13:21:46 13:24:29 16° 110° (ESE) 13:27:14 436.795 FM
HO-68 23 Oct 13:27:49 13:31:53 16° 316° (NW) 13:35:57 435.675 MHz FM
PCSat 23 Oct 13:31:46 13:37:11 61° 51° (NE) 13:42:33 145.825 MHz
AO-27 23 Oct 13:33:57 13:37:52 22° 59° (ENE) 13:41:48 436.795 MHz FM
ISS 23 Oct 13:34:08 13:35:18 12° 134° (SE) 13:36:29 145.800 FM
JAS-1B 23 Oct 13:46:35 13:52:12 48° 67° (ENE) 13:57:38 435.800 - 435.900 CW/SSB
FUNcube-1 23 Oct 13:58:47 13:59:19 10° 305° (NW) 13:59:52 145.950 - 145.970 MHz USB
Oscar 16 23 Oct 14:04:01 14:09:11 78° 73° (ENE) 14:14:22 437.025 USB, Beacon 2401.1428
AO-Echo 23 Oct 14:11:38 14:16:20 48° 68° (ENE) 14:21:13 ?
KITSAT 1 23 Oct 14:11:56 14:20:02 88° 305° (NW) 14:28:11 435.175 FM
Uribyol 2 23 Oct 14:20:59 14:26:02 52° 69° (ENE) 14:31:07 436.500 FM
ITAMSAT 1 23 Oct 14:26:36 14:31:40 54° 69° (ENE) 14:36:46 435.822 SSB
AO-7 23 Oct 14:32:40 14:38:22 21° 43° (NE) 14:44:05 29.400 - 29.500 MHz
Gurwin Techsat 1B 23 Oct 14:37:57 14:42:49 38° 66° (ENE) 14:47:42 435.225 FM
Saudisat 1A 23 Oct 14:49:22 14:51:32 13° 20° (NNE) 14:53:43 436.775 MHz
TMSAT-1 23 Oct 14:50:13 14:55:02 37° 65° (ENE) 14:59:53 436.925 FM
Sapphire 23 Oct 14:52:39 14:57:41 39° 246° (WSW) 15:02:41 437.095 MHz 1200 baud AX-25 AFSK
UOSAT-12 23 Oct 14:54:18 14:56:27 13° 108° (ESE) 14:58:36 437.025 FM, 437.400 FM
Oscar 19 23 Oct 14:58:19 15:03:07 39° 263° (W) 15:07:55 437.125 CW, 437.150 USB
SO-50 23 Oct 14:59:53 15:04:25 79° 310° (NW) 15:09:06 436.795 FM
ISS 23 Oct 15:08:08 15:11:26 59° 151° (SSE) 15:14:44 145.800 FM
AO-27 23 Oct 15:11:46 15:16:56 65° 258° (WSW) 15:22:10 436.795 MHz FM
PCSat 23 Oct 15:15:52 15:20:12 25° 251° (WSW) 15:24:31 145.825 MHz
JAS-1B 23 Oct 15:38:17 15:43:13 27° 266° (W) 15:48:00 435.800 - 435.900 CW/SSB
Oscar 16 23 Oct 15:46:02 15:49:09 16° 272° (W) 15:52:16 437.025 USB, Beacon 2401.1428
AO-Echo 23 Oct 15:51:22 15:55:22 25° 268° (W) 15:59:30 ?
Uosat F 23 Oct 15:56:08 16:00:10 25° 61° (ENE) 16:04:14 435.120 FM
Uribyol 2 23 Oct 16:01:33 16:05:47 25° 267° (W) 16:10:04 436.500 FM
ITAMSAT 1 23 Oct 16:07:21 16:11:29 24° 268° (W) 16:15:40 435.822 SSB
KITSAT 1 23 Oct 16:09:22 16:16:31 33° 330° (NNW) 16:23:42 435.175 FM
Gurwin Techsat 1B 23 Oct 16:18:00 16:22:49 35° 264° (W) 16:27:40 435.225 FM
AO-7 23 Oct 16:21:36 16:29:48 70° 65° (ENE) 16:38:02 29.400 - 29.500 MHz
Saudisat 1A 23 Oct 16:28:04 16:32:17 41° 43° (NE) 16:36:28 436.775 MHz
TMSAT-1 23 Oct 16:30:07 16:34:58 36° 264° (W) 16:39:51 436.925 FM
UOSAT-12 23 Oct 16:31:11 16:35:51 85° 128° (SE) 16:40:36 437.025 FM, 437.400 FM
SO-50 23 Oct 16:42:19 16:45:44 20° 332° (NNW) 16:49:13 436.795 FM
ISS 23 Oct 16:44:57 16:48:13 49° 351° (N) 16:51:29 145.800 FM
JAS-2 23 Oct 17:01:44 17:06:59 31° 58° (ENE) 17:12:49 435.800 - 435.900 CW/SSB, 435.910 FM
OPAL 23 Oct 17:31:33 17:32:04 10° 87° (E) 17:32:36 ?
Uosat F 23 Oct 17:33:46 17:38:39 52° 260° (W) 17:43:36 435.120 FM
Hamsat 23 Oct 18:01:48 18:05:48 44° 70° (ENE) 18:09:48 145.90 MHz
Saudisat 1A 23 Oct 18:07:50 18:11:46 32° 242° (WSW) 18:15:41 436.775 MHz
KITSAT 1 23 Oct 18:08:46 18:14:44 22° 359° (N) 18:20:43 435.175 FM
UOSAT-12 23 Oct 18:12:50 18:16:36 23° 328° (NNW) 18:20:23 437.025 FM, 437.400 FM
AO-7 23 Oct 18:16:07 18:23:13 31° 266° (W) 18:30:23 29.400 - 29.500 MHz
ISS 23 Oct 18:21:58 18:25:15 51° 11° (N) 18:28:32 145.800 FM
SO-50 23 Oct 18:26:49 18:28:08 11° 356° (N) 18:29:27 436.795 FM
SO-67 23 Oct 18:38:27 18:40:11 13° 63° (ENE) 18:41:55 435.3500 MHz FM
JAS-2 23 Oct 18:45:46 18:51:37 58° 261° (W) 18:58:20 435.800 - 435.900 CW/SSB, 435.910 FM
OPAL 23 Oct 19:06:50 19:11:50 75° 106° (ESE) 19:16:46 ?
STRAND 1 23 Oct 19:11:50 19:14:26 14° 87° (E) 19:17:03 ?
Hamsat 23 Oct 19:38:52 19:41:58 20° 268° (W) 19:45:05 145.90 MHz
UOSAT-12 23 Oct 19:56:56 19:58:28 11° 352° (N) 20:00:00 437.025 FM, 437.400 FM
ISS 23 Oct 19:58:43 20:02:00 52° 210° (SSW) 20:05:15 145.800 FM
KITSAT 1 23 Oct 20:05:55 20:13:01 32° 29° (NNE) 20:20:04 435.175 FM
SO-50 23 Oct 20:07:52 20:10:43 16° 21° (NNE) 20:13:36 436.795 FM
SO-67 23 Oct 20:09:26 20:12:47 50° 261° (W) 20:16:10 435.3500 MHz FM
HO-68 23 Oct 20:23:39 20:30:01 37° 58° (ENE) 20:36:26 435.675 MHz FM
OPAL 23 Oct 20:46:47 20:50:10 19° 305° (NW) 20:53:32 ?
STRAND 1 23 Oct 20:49:09 20:54:21 88° 286° (WNW) 20:59:30 ?
UKube-1 23 Oct 21:06:51 21:09:54 19° 61° (ENE) 21:12:58 145.840 MHz, 145.915 MHz
UOSAT-12 23 Oct 21:38:13 21:40:41 14° 18° (NNE) 21:43:08 437.025 FM, 437.400 FM
FUNcube-1 23 Oct 21:44:15 21:47:22 19° 61° (ENE) 21:50:28 145.950 - 145.970 MHz USB
SO-50 23 Oct 21:47:48 21:52:26 46° 44° (NE) 21:57:08 436.795 FM
Oscar 11 23 Oct 21:48:17 21:52:17 38° 68° (ENE) 21:56:17 145.825 FM, Beacon 2401.500 USB
KITSAT 1 23 Oct 22:01:27 22:09:36 84° 54° (NE) 22:17:41 435.175 FM
HO-68 23 Oct 22:10:29 22:17:29 56° 259° (WSW) 22:24:33 435.675 MHz FM
RS-15 23 Oct 22:25:06 22:34:28 35° 107° (ESE) 22:43:46 29.354 - 29.394 USB, Beacon 29.352 USB
STRAND 1 23 Oct 22:29:49 22:32:49 16° 305° (NW) 22:35:48 ?
ZACube-1 23 Oct 22:33:51 22:38:17 50° 71° (ENE) 22:42:40 437.345 MHz
UKube-1 23 Oct 22:41:26 22:45:43 56° 259° (W) 22:50:02 145.840 MHz, 145.915 MHz
UOSAT-12 23 Oct 23:17:44 23:22:09 37° 40° (NE) 23:26:31 437.025 FM, 437.400 FM
FUNcube-1 23 Oct 23:18:47 23:23:20 62° 259° (W) 23:27:50 145.950 - 145.970 MHz USB
Oscar 11 23 Oct 23:25:01 23:28:35 24° 266° (W) 23:32:09 145.825 FM, Beacon 2401.500 USB
SO-50 23 Oct 23:28:36 23:32:54 33° 243° (WSW) 23:37:14 436.795 FM
KITSAT 1 23 Oct 23:57:49 00:04:07 26° 255° (WSW) 00:10:25 435.175 FM
ZACube-1 24 Oct 00:11:30 00:14:56 21° 268° (W) 00:18:21 437.345 MHz
RS-15 24 Oct 00:34:49 00:45:48 79° 311° (NW) 00:56:51 29.354 - 29.394 USB, Beacon 29.352 USB
UOSAT-12 24 Oct 00:57:56 01:02:22 40° 241° (WSW) 01:06:43 437.025 FM, 437.400 FM
MaSat-1 24 Oct 01:03:53 01:07:56 61° 117° (ESE) 01:11:35 437.345 MHz
JAS-1B 24 Oct 01:29:06 01:29:29 10° 84° (E) 01:29:52 435.800 - 435.900 CW/SSB
Oscar 16 24 Oct 02:12:52 02:16:41 21° 91° (E) 02:20:29 437.025 USB, Beacon 2401.1428
AO-Echo 24 Oct 02:16:45 02:19:06 13° 86° (E) 02:21:27 ?
Uribyol 2 24 Oct 02:31:43 02:34:16 14° 87° (E) 02:36:48 436.500 FM
ITAMSAT 1 24 Oct 02:37:17 02:40:06 14° 87° (E) 02:42:54 435.822 SSB
MaSat-1 24 Oct 02:41:13 02:43:52 17° 313° (NW) 02:46:20 437.345 MHz
RS-15 24 Oct 02:50:06 03:00:04 38° 341° (NNW) 03:10:12 29.354 - 29.394 USB, Beacon 29.352 USB
Gurwin Techsat 1B 24 Oct 02:53:00 02:54:11 11° 84° (E) 02:55:22 435.225 FM
TMSAT-1 24 Oct 03:05:33 03:05:58 10° 84° (E) 03:06:24 436.925 FM
Oscar 19 24 Oct 03:05:42 03:10:45 57° 101° (E) 03:15:47 437.125 CW, 437.150 USB
JAS-1B 24 Oct 03:14:48 03:21:12 59° 102° (ESE) 03:28:47 435.800 - 435.900 CW/SSB
AO-27 24 Oct 03:21:17 03:26:04 35° 96° (E) 03:30:49 436.795 MHz FM
Oscar 16 24 Oct 03:51:23 03:56:27 60° 290° (WNW) 04:01:28 437.025 USB, Beacon 2401.1428
AO-Echo 24 Oct 03:53:19 03:58:40 83° 104° (ESE) 04:04:00 ?
Sapphire 24 Oct 03:56:57 04:00:05 16° 104° (ESE) 04:03:12 437.095 MHz 1200 baud AX-25 AFSK
Uribyol 2 24 Oct 04:09:14 04:14:30 90° 105° (ESE) 04:19:42 436.500 FM
ITAMSAT 1 24 Oct 04:15:02 04:20:18 86° 286° (WNW) 04:25:32 435.822 SSB
PCSat 24 Oct 04:18:04 04:22:26 25° 109° (ESE) 04:26:48 145.825 MHz
AO-7 24 Oct 04:20:42 04:25:40 17° 86° (E) 04:30:37 29.400 - 29.500 MHz
